H1 CPF 2 NER 2020 12 20 9 355 01 glonass141 H2 1908801 9141 44850 2020 12 20 0 0 0 2020 12 23 23 45 0 900 1 1 0 0 0 1 H9 10 0 59203 0.00000 0 -8958015.261 6146493.321 23097927.628 10 0 59203 900.00000 0 -10786470.033 3990226.653 22786462.443 10 0 59203 1800.00000 0 -12723117.884 2021142.362 22033332.951 10 0 59203 2700.00000 0 -14711413.275 279483.543 20853064.858 10 0 59203 3600.00000 0 -16689451.440 -1205716.116 19268452.371 10 0 59203 4500.00000 0 -18592438.097 -2417611.604 17310126.711 10 0 59203 5400.00000 0 -20355300.162 -3352010.291 15015973.873 10 0 59203 6300.00000 0 -21915329.640 -4017301.024 12430411.627 10 0 59203 7200.00000 0 -23214750.722 -4433851.905 9603538.661 10 0 59203 8100.00000 0 -24203102.952 -4632902.164 6590171.236 10 0 59203 9000.00000 0 -24839340.326 -4654994.842 3448785.176 10 0 59203 9900.00000 0 -25093557.579 -4548016.330 240383.310 10 0 59203 10800.00000 0 -24948270.227 -4364925.793 -2972689.822 10 0 59203 11700.00000 0 -24399193.348 -4161270.814 -6127962.787 10 0 59203 12600.00000 0 -23455485.134 -3992595.017 -9164057.352 10 0 59203 13500.00000 0 -22139443.771 -3911848.285 -12021889.433 10 0 59203 14400.00000 0 -20485669.386 -3966910.363 -14645826.660 10 0 59203 15300.00000 0 -18539725.508 -4198333.936 -16984779.085 10 0 59203 16200.00000 0 -16356355.773 -4637404.036 -18993201.045 10 0 59203 17100.00000 0 -13997330.383 -5304597.254 -20631984.061 10 0 59203 18000.00000 0 -11529012.589 -6208507.124 -21869222.879 10 0 59203 18900.00000 0 -9019747.100 -7345282.275 -22680839.573 10 0 59203 19800.00000 0 -6537179.690 -8698602.142 -23051053.509 10 0 59203 20700.00000 0 -4145620.083 -10240192.111 -22972688.079 10 0 59203 21600.00000 0 -1903558.037 -11930857.228 -22447308.463 10 0 59203 22500.00000 0 138564.055 -13721991.583 -21485187.947 10 0 59203 23400.00000 0 1940229.687 -15557500.336 -20105103.686 10 0 59203 24300.00000 0 3472300.386 -17376053.956 -18333966.155 10 0 59203 25200.00000 0 4717982.072 -19113580.188 -16206289.680 10 0 59203 26100.00000 0 5673266.686 -20705889.110 -13763514.657 10 0 59203 27000.00000 0 6346832.312 -22091321.064 -11053194.929 10 0 59203 27900.00000 0 6759407.940 -23213306.235 -8128066.427 10 0 59203 28800.00000 0 6942631.441 -24022728.311 -5045015.703 10 0 59203 29700.00000 0 6937450.747 -24479993.001 -1863968.878 10 0 59203 30600.00000 0 6792137.419 -24556714.709 1353276.933 10 0 59203 31500.00000 0 6559997.905 -24236950.743 4544256.378 10 0 59203 32400.00000 0 6296880.400 -23517931.709 7647049.095 10 0 59203 33300.00000 0 6058583.514 -22410257.874 10601479.608 10 0 59203 34200.00000 0 5898276.750 -20937553.819 13350280.461 10 0 59203 35100.00000 0 5864041.946 -19135596.286 15840196.324 10 0 59203 36000.00000 0 5996639.383 -17050951.990 18023008.169 10 0 59203 36900.00000 0 6327592.536 -14739182.426 19856458.345 10 0 59203 37800.00000 0 6877671.849 -12262690.312 21305059.655 10 0 59203 38700.00000 0 7655841.155 -9688296.818 22340773.789 10 0 59203 39600.00000 0 8658710.994 -7084649.538 22943546.996 10 0 59203 40500.00000 0 9870522.073 -4519567.789 23101693.540 10 0 59203 41400.00000 0 11263660.263 -2057434.044 22812120.190 10 0 59203 42300.00000 0 12799682.519 243261.576 22080387.674 10 0 59203 43200.00000 0 14430812.134 2332123.335 20920607.900 10 0 59203 44100.00000 0 16101842.284 4168708.356 19355178.434 10 0 59203 45000.00000 0 17752369.768 5723965.393 17414358.621 10 0 59203 45900.00000 0 19319266.994 6981194.952 15135694.501 10 0 59203 46800.00000 0 20739289.943 7936491.441 12563302.425 10 0 59203 47700.00000 0 21951713.707 8598649.232 9747024.106 10 0 59203 48600.00000 0 22900885.500 8988536.875 6741468.388 10 0 59203 49500.00000 0 23538587.941 9137965.857 3604957.428 10 0 59203 50400.00000 0 23826112.716 9088101.606 398397.312 10 0 59203 51300.00000 0 23735956.541 8887483.875 -2815905.156 10 0 59203 52200.00000 0 23253066.792 8589740.441 -5975456.344 10 0 59203 53100.00000 0 22375583.000 8251091.221 -9018796.147 10 0 59203 54000.00000 0 21115041.549 7927749.143 -11886700.414 10 0 59203 54900.00000 0 19496033.628 7673328.689 -14523341.186 10 0 59203 55800.00000 0 17555329.656 7536372.859 -16877381.202 10 0 59203 56700.00000 0 15340506.073 7558104.384 -18902980.653 10 0 59203 57600.00000 0 12908131.423 7770497.471 -20560695.899 10 0 59203 58500.00000 0 10321587.398 8194752.713 -21818252.178 10 0 59203 59400.00000 0 7648615.818 8840240.600 -22651175.038 10 0 59203 60300.00000 0 4958693.932 9703959.108 -23043268.145 10 0 59203 61200.00000 0 2320347.654 10770528.949 -22986928.216 10 0 59203 62100.00000 0 -201485.347 12012727.248 -22483291.163 10 0 59203 63000.00000 0 -2547933.073 13392537.606 -21542206.814 10 0 59203 63900.00000 0 -4668404.245 14862672.578 -20182042.963 10 0 59203 64800.00000 0 -6522449.424 16368504.667 -18429322.792 10 0 59203 65700.00000 0 -8081191.600 17850324.621 -16318202.966 10 0 59203 66600.00000 0 -9328267.746 19245831.936 -13889802.799 10 0 59203 67500.00000 0 -10260243.620 20492752.665 -11191397.857 10 0 59203 68400.00000 0 -10886486.217 21531474.202 -8275493.983 10 0 59203 69300.00000 0 -11228501.117 22307585.983 -5198800.239 10 0 59203 70200.00000 0 -11318764.573 22774219.071 -2021121.211 10 0 59203 71100.00000 0 -11199101.393 22894086.119 1195809.311 10 0 59203 72000.00000 0 -10918678.644 22641135.938 4389530.009 10 0 59203 72900.00000 0 -10531701.292 22001753.282 7498065.338 10 0 59203 73800.00000 0 -10094908.142 20975453.655 10461126.646 10 0 59203 74700.00000 0 -9664974.512 19575044.301 13221277.656 10 0 59203 75600.00000 0 -9295931.613 17826244.846 15725041.962 10 0 59203 76500.00000 0 -9036711.531 15766783.637 17923931.580 10 0 59203 77400.00000 0 -8928921.016 13445007.499 19775377.277 10 0 59203 78300.00000 0 -9004937.431 10918062.631 21243543.665 10 0 59203 79200.00000 0 -9286406.504 8249721.777 22300014.317 10 0 59203 80100.00000 0 -9783204.656 5507947.228 22924334.637 10 0 59203 81000.00000 0 -10492909.344 2762289.671 23104402.923 10 0 59203 81900.00000 0 -11400799.816 81229.455 22836702.713 10 0 59203 82800.00000 0 -12480388.755 -2470430.895 22126372.248 10 0 59203 83700.00000 0 -13694463.429 -4834016.309 20987109.675 10 0 59203 84600.00000 0 -14996593.897 -6959170.795 19440915.395 10 0 59203 85500.00000 0 -16333046.386 -8805701.210 17517675.770 10 0 59204 0.00000 0 -17645023.025 -10344997.636 15254595.279 10 0 59204 900.00000 0 -18871135.228 -11560971.817 12695486.571 10 0 59204 1800.00000 0 -19950008.064 -12450475.482 9889931.832 10 0 59204 2700.00000 0 -20822906.285 -13023180.302 6892329.510 10 0 59204 3600.00000 0 -21436272.492 -13300926.018 3760844.854 10 0 59204 4500.00000 0 -21744069.582 -13316563.071 556283.773 10 0 59204 5400.00000 0 -21709828.382 -13112339.140 -2659088.204 10 0 59204 6300.00000 0 -21308312.899 -12737897.619 -5822758.833 10 0 59204 7200.00000 0 -20526731.558 -12247972.942 -8873189.720 10 0 59204 8100.00000 0 -19365441.835 -11699880.715 -11751020.156 10 0 59204 9000.00000 0 -17838116.987 -11150909.532 -14400229.946 10 0 59204 9900.00000 0 -15971366.423 -10655725.687 -16769237.651 10 0 59204 10800.00000 0 -13803824.408 -10263901.517 -18811912.104 10 0 59204 11700.00000 0 -11384744.277 -10017672.906 -20488476.867 10 0 59204 12600.00000 0 -8772156.419 -9950021.615 -21766289.504 10 0 59204 13500.00000 0 -6030666.568 -10083164.295 -22620480.275 10 0 59204 14400.00000 0 -3228986.071 -10427512.601 -23034437.767 10 0 59204 15300.00000 0 -437297.058 -10981148.799 -23000132.040 10 0 59204 16200.00000 0 2275437.794 -11729839.264 -22518269.194 10 0 59204 17100.00000 0 4844109.095 -12647585.510 -21598274.584 10 0 59204 18000.00000 0 7209928.724 -13697689.514 -20258105.207 10 0 59204 18900.00000 0 9322629.711 -14834288.389 -18523895.189 10 0 59204 19800.00000 0 11142307.161 -16004293.548 -16429441.458 10 0 59204 20700.00000 0 12640824.391 -17149652.382 -14015539.919 10 0 59204 21600.00000 0 13802726.942 -18209836.831 -11329185.305 10 0 59204 22500.00000 0 14625627.803 -19124453.631 -8422650.601 10 0 59204 23400.00000 0 15120049.475 -19835865.839 -5352464.439 10 0 59204 24300.00000 0 15308731.380 -20291714.853 -2178306.813 10 0 59204 25200.00000 0 15225433.670 -20447236.398 1038154.934 10 0 59204 26100.00000 0 14913289.527 -20267272.746 4234466.619 10 0 59204 27000.00000 0 14422776.997 -19727896.414 7348600.511 10 0 59204 27900.00000 0 13809397.144 -18817577.052 10320157.611 10 0 59204 28800.00000 0 13131157.368 -17537842.585 13091535.403 10 0 59204 29700.00000 0 12445966.516 -15903406.953 15609038.701 10 0 59204 30600.00000 0 11809051.730 -13941759.043 17823912.521 10 0 59204 31500.00000 0 11270505.611 -11692229.917 19693277.642 10 0 59204 32400.00000 0 10873066.433 -9204576.850 21180951.701 10 0 59204 33300.00000 0 10650224.119 -6537142.520 22258140.987 10 0 59204 34200.00000 0 10624730.906 -3754665.061 22903990.505 10 0 59204 35100.00000 0 10807578.642 -925828.728 23105982.664 10 0 59204 36000.00000 0 11197485.331 1879344.619 22860177.509 10 0 59204 36900.00000 0 11780912.465 4592156.495 22171290.202 10 0 59204 37800.00000 0 12532612.754 7147836.550 21052604.262 10 0 59204 38700.00000 0 13416686.023 9487984.583 19525721.799 10 0 59204 39600.00000 0 14388099.912 11562749.768 17620154.840 10 0 59204 40500.00000 0 15394612.713 13332657.647 15372764.639 10 0 59204 41400.00000 0 16379018.703 14770009.742 12827058.608 10 0 59204 42300.00000 0 17281622.567 15859797.862 10032357.350 10 0 59204 43200.00000 0 18042839.505 16600095.266 7042846.799 10 0 59204 44100.00000 0 18605811.822 17001908.370 3916532.995 10 0 59204 45000.00000 0 18918931.560 17088495.200 714119.239 10 0 59204 45900.00000 0 18938162.153 16894179.212 -2502172.745 10 0 59204 46800.00000 0 18629060.106 16462708.506 -5669814.655 10 0 59204 47700.00000 0 17968409.987 15845229.779 -8727192.312 10 0 59204 48600.00000 0 16945402.158 15097962.932 -11614810.837 10 0 59204 49500.00000 0 15562301.813 14279675.108 -14276460.024 10 0 59204 50400.00000 0 13834579.518 13449061.584 -16660316.277 10 0 59204 51300.00000 0 11790496.145 12662145.028 -18719958.895 10 0 59204 52200.00000 0 9470158.269 11969803.783 -20415280.277 10 0 59204 53100.00000 0 6924082.604 11415534.378 -21713271.765 10 0 59204 54000.00000 0 4211328.733 11033543.331 -22588669.630 10 0 59204 54900.00000 0 1397277.563 10847249.266 -23024448.504 10 0 59204 55800.00000 0 -1448852.049 10868258.766 -23012152.699 10 0 59204 56700.00000 0 -4256645.296 11095859.247 -22552059.163 10 0 59204 57600.00000 0 -6957182.176 11517050.113 -21653169.103 10 0 59204 58500.00000 0 -9485665.172 12107110.601 -20333028.675 10 0 59204 59400.00000 0 -11783874.834 12830680.020 -18617382.501 10 0 59204 60300.00000 0 -13802351.535 13643304.340 -16539666.943 10 0 59204 61200.00000 0 -15502213.171 14493383.395 -14140353.291 10 0 59204 62100.00000 0 -16856533.985 15324435.970 -11466153.926 10 0 59204 63000.00000 0 -17851228.235 16077586.646 -8569107.194 10 0 59204 63900.00000 0 -18485403.135 16694168.871 -5505559.305 10 0 59204 64800.00000 0 -18771168.055 17118333.906 -2335063.487 10 0 59204 65700.00000 0 -18732909.711 17299555.104 880781.690 10 0 59204 66600.00000 0 -18406065.596 17194921.535 4079531.644 10 0 59204 67500.00000 0 -17835448.904 16771124.030 7199109.072 10 0 59204 68400.00000 0 -17073196.885 16006049.846 10179007.347 10 0 59204 69300.00000 0 -16176430.118 14889918.789 12961460.537 10 0 59204 70200.00000 0 -15204722.015 13425913.004 15492557.529 10 0 59204 71100.00000 0 -14217485.334 11630273.888 17723279.184 10 0 59204 72000.00000 0 -13271385.575 9531861.847 19610439.054 10 0 59204 72900.00000 0 -12417889.521 7171196.868 21117510.399 10 0 59204 73800.00000 0 -11701051.159 4599019.147 22215324.580 10 0 59204 74700.00000 0 -11155627.075 1874428.866 22882628.267 10 0 59204 75600.00000 0 -10805599.471 -937318.863 23106489.672 10 0 59204 76500.00000 0 -10663168.004 -3767273.791 22882546.617 10 0 59204 77400.00000 0 -10728252.203 -6545404.532 22215092.008 10 0 59204 78300.00000 0 -10988525.136 -9203260.048 21116995.062 10 0 59204 79200.00000 0 -11419977.108 -11676569.843 19609459.417 10 0 59204 80100.00000 0 -11987986.205 -13907676.294 17721622.071 10 0 59204 81000.00000 0 -12648851.518 -15847699.312 15489999.917 10 0 59204 81900.00000 0 -13351725.463 -17458344.147 12957793.371 10 0 59204 82800.00000 0 -14040864.754 -18713277.511 10174059.437 10 0 59204 83700.00000 0 -14658105.952 -19599014.846 7192769.118 10 0 59204 84600.00000 0 -15145461.589 -20115281.666 4071766.532 10 0 59204 85500.00000 0 -15447727.354 -20274833.594 871649.427 10 0 59205 0.00000 0 -15514989.867 -20102742.575 -2345407.343 10 0 59205 900.00000 0 -15304927.813 -19635178.961 -5516862.822 10 0 59205 1800.00000 0 -14784809.196 -18917741.026 -8581030.364 10 0 59205 2700.00000 0 -13933096.703 -18003402.093 -11478284.345 10 0 59205 3600.00000 0 -12740593.873 -16950162.587 -14152227.963 10 0 59205 4500.00000 0 -11211080.432 -15818506.376 -16550798.771 10 0 59205 5400.00000 0 -9361408.953 -14668769.504 -18627289.632 10 0 59205 6300.00000 0 -7221056.934 -13558532.986 -20341264.547 10 0 59205 7200.00000 0 -4831151.811 -12540150.289 -21659350.994 10 0 59205 8100.00000 0 -2243008.629 -11658514.285 -22555893.090 10 0 59205 9000.00000 0 483759.384 -10949158.132 -23013452.795 10 0 59205 9900.00000 0 3283478.914 -10436770.211 -23023149.398 10 0 59205 10800.00000 0 6086910.458 -10134185.583 -22584830.877 10 0 59205 11700.00000 0 8823894.373 -10041896.084 -21707073.986 10 0 59205 12600.00000 0 11426039.016 -10148099.182 -20407013.300 10 0 59205 13500.00000 0 13829339.316 -10429282.848 -18710002.785 10 0 59205 14400.00000 0 15976617.025 -10851320.988 -16649116.698 10 0 59205 15300.00000 0 17819681.403 -11371032.384 -14264499.800 10 0 59205 16200.00000 0 19321120.886 -11938136.480 -11602579.813 10 0 59205 17100.00000 0 20455651.902 -12497522.591 -8715157.776 10 0 59205 18000.00000 0 21210969.527 -12991735.855 -5658394.458 10 0 59205 18900.00000 0 21588065.795 -13363574.207 -2491713.029 10 0 59205 19800.00000 0 21601003.880 -13558685.997 723360.200 10 0 59205 20700.00000 0 21276159.207 -13528058.053 3924393.806 10 0 59205 21600.00000 0 20650961.006 -13230288.757 7049264.412 10 0 59205 22500.00000 0 19772188.654 -12633549.992 10037361.107 10 0 59205 23400.00000 0 18693895.635 -11717155.116 12830757.601 10 0 59205 24300.00000 0 17475049.271 -10472666.866 15375329.584 10 0 59205 25200.00000 0 16176985.896 -8904498.453 17621796.102 10 0 59205 26100.00000 0 14860788.399 -7029982.391 19526665.397 10 0 59205 27000.00000 0 13584695.856 -4878903.737 21053067.854 10 0 59205 27900.00000 0 12401653.166 -2492516.485 22171460.985 10 0 59205 28800.00000 0 11357102.466 77916.769 22860193.787 10 0 59205 29700.00000 0 10487107.732 2773002.361 23105920.531 10 0 59205 30600.00000 0 9816890.040 5527433.778 22903856.677 10 0 59205 31500.00000 0 9359833.898 8272459.969 22257872.347 10 0 59205 32400.00000 0 9117005.587 10938503.087 21180421.569 10 0 59205 33300.00000 0 9077203.354 13457818.668 19692308.294 10 0 59205 34200.00000 0 9217537.327 15767089.253 17822292.980 10 0 59205 35100.00000 0 9504515.137 17809844.973 15606546.380 10 0 59205 36000.00000 0 9895588.110 19538611.329 13087959.894 10 0 59205 36900.00000 0 10341093.618 20916695.186 10315324.703 10 0 59205 37800.00000 0 10786512.337 21919534.718 7342394.455 10 0 59205 38700.00000 0 11174945.581 22535556.785 4226848.777 10 0 59205 39600.00000 0 11449708.244 22766505.511 1029177.170 10 0 59205 40500.00000 0 11556927.496 22627227.923 -2188495.254 10 0 59205 41400.00000 0 11448036.664 22144925.281 -5363617.350 10 0 59205 42300.00000 0 11082057.784 21357901.273 -8434432.748 10 0 59205 43200.00000 0 10427574.875 20313859.708 -11341187.554 10 0 59205 44100.00000 0 9464312.869 19067823.493 -14027300.619 10 0 59205 45000.00000 0 8184253.759 17679762.873 -16440472.657 10 0 59205 45900.00000 0 6592241.030 16212033.362 -18533711.868 10 0 59205 46800.00000 0 4706045.161 14726731.800 -20266255.408 10 0 59205 47700.00000 0 2555885.889 13283082.468 -21604368.217 10 0 59205 48600.00000 0 183429.902 11934963.736 -22522003.398 10 0 59205 49500.00000 0 -2359695.190 10728679.583 -23001311.161 10 0 59205 50400.00000 0 -5013809.221 9701069.802 -23032986.453 10 0 59205 51300.00000 0 -7713431.107 8878038.171 -22616448.666 10 0 59205 52200.00000 0 -10389780.235 8273559.968 -21759850.142 10 0 59205 53100.00000 0 -12973423.506 7889209.905 -20479913.523 10 0 59205 54000.00000 0 -15396957.936 7714229.406 -18801601.374 10 0 59205 54900.00000 0 -17597617.229 7726129.290 -16757624.724 10 0 59205 55800.00000 0 -19519693.829 7891801.335 -14387800.346 10 0 59205 56700.00000 0 -21116675.822 8169090.607 -11738269.597 10 0 59205 57600.00000 0 -22353010.062 8508761.002 -8860594.294 10 0 59205 58500.00000 0 -23205418.555 8856769.886 -5810747.719 10 0 59205 59400.00000 0 -23663714.059 9156754.672 -2648020.836 10 0 59205 60300.00000 0 -23731081.955 9352625.364 566134.536 10 0 59205 61200.00000 0 -23423817.916 9391152.758 3769302.465 10 0 59205 62100.00000 0 -22770533.808 9224442.386 6899315.931 10 0 59205 63000.00000 0 -21810866.525 8812189.336 9895462.262 10 0 59205 63900.00000 0 -20593745.206 8123618.580 12699657.412 10 0 59205 64800.00000 0 -19175290.508 7139028.859 15257566.506 10 0 59205 65700.00000 0 -17616434.689 5850875.017 17519649.371 10 0 59205 66600.00000 0 -15980362.497 4264343.095 19442111.430 10 0 59205 67500.00000 0 -14329879.877 2397393.699 20987742.491 10 0 59205 68400.00000 0 -12724820.001 280271.162 22126628.262 10 0 59205 69300.00000 0 -11219594.236 -2045501.822 22836721.783 10 0 59205 70200.00000 0 -9860989.269 -4528603.396 23104264.738 10 0 59205 71100.00000 0 -8686301.180 -7109805.447 22924051.193 10 0 59205 72000.00000 0 -7721883.267 -9724203.073 22299529.056 10 0 59205 72900.00000 0 -6982167.279 -12303689.724 21242737.335 10 0 59205 73800.00000 0 -6469198.180 -14779576.945 19774080.051 10 0 59205 74700.00000 0 -6172701.504 -17085251.331 17921940.484 10 0 59205 75600.00000 0 -6070680.262 -19158759.630 15722142.218 10 0 59205 76500.00000 0 -6130516.508 -20945215.382 13217266.250 10 0 59205 77400.00000 0 -6310531.526 -22398927.356 10455836.220 10 0 59205 78300.00000 0 -6561939.328 -23485161.206 7491386.425 10 0 59205 79200.00000 0 -6831111.391 -24181460.565 4381429.749 10 0 59205 80100.00000 0 -7062057.130 -24478471.819 1186345.006 10 0 59205 81000.00000 0 -7199015.105 -24380237.408 -2031794.996 10 0 59205 81900.00000 0 -7189044.812 -23903944.706 -5210431.834 10 0 59205 82800.00000 0 -6984508.533 -23079140.432 -8287742.289 10 0 59205 83700.00000 0 -6545336.949 -21946443.255 -11203847.235 10 0 59205 84600.00000 0 -5840981.192 -20555808.487 -13901984.288 10 0 59205 85500.00000 0 -4851967.118 -18964417.998 -16329620.430 10 0 59206 0.00000 0 -3570984.456 -17234284.297 -18439482.161 10 0 59206 900.00000 0 -2003462.608 -15429669.977 -20190482.654 10 0 59206 1800.00000 0 -167608.617 -13614431.253 -21548526.772 10 0 59206 2700.00000 0 1906098.016 -11849398.190 -22487178.676 10 0 59206 3600.00000 0 4175931.618 -10189900.997 -22988178.465 10 0 59206 4500.00000 0 6590427.042 -8683547.095 -23041797.897 10 0 59206 5400.00000 0 9090304.010 -7368341.639 -22647028.471 10 0 59206 6300.00000 0 11610729.378 -6271229.954 -21811598.354 10 0 59206 7200.00000 0 14083823.133 -5407122.325 -20551818.073 10 0 59206 8100.00000 0 16441303.720 -4778441.026 -18892258.201 10 0 59206 9000.00000 0 18617162.500 -4375207.338 -16865265.520 10 0 59206 9900.00000 0 20550255.688 -4175663.555 -14510327.371 10 0 59206 10800.00000 0 22186705.779 -4147402.199 -11873296.837 10 0 59206 11700.00000 0 23482012.360 -4248953.390 -9005494.156 10 0 59206 12600.00000 0 24402784.478 -4431761.911 -5962702.336 10 0 59206 13500.00000 0 24928022.722 -4642469.119 -2804076.971 10 0 59206 14400.00000 0 25049898.176 -4825402.101 409008.044 10 0 59206 15300.00000 0 24773996.607 -4925163.877 3614155.852 10 0 59206 16200.00000 0 24119018.828 -4889214.403 6749159.384 10 0 59206 17100.00000 0 23115950.966 -4670332.761 9753207.698 10 0 59206 18000.00000 0 21806740.553 -4228856.226 12568062.270 10 0 59206 18900.00000 0 20242534.875 -3534601.589 15139180.641 10 0 59206 19800.00000 0 18481556.037 -2568387.594 17416766.058 10 0 59206 20700.00000 0 16586702.009 -1323094.405 19356723.389 10 0 59206 21600.00000 0 14622973.918 195784.717 20921503.751 10 0 59206 22500.00000 0 12654836.537 1970123.083 22080822.529 10 0 59206 23400.00000 0 10743621.391 3969673.145 22812237.897 10 0 59206 24300.00000 0 8945079.641 6153091.590 23101579.632 10 0 59206 25200.00000 0 7307185.495 8469435.534 22943220.661 10 0 59206 26100.00000 0 5868280.405 10860068.995 22340186.491 10 0 59206 27000.00000 0 4655634.164 13260902.001 21304100.490 10 0 59206 27900.00000 0 3684481.827 15604870.946 19854965.714 10 0 59206 28800.00000 0 2957575.887 17824558.560 18020786.831 10 0 59206 29700.00000 0 2465271.906 19854845.865 15837038.477 10 0 59206 30600.00000 0 2186143.693 21635486.777 13345989.155 10 0 59206 31500.00000 0 2088102.254 23113498.566 10595892.607 10 0 59206 32400.00000 0 2129971.537 24245268.675 7640061.195 10 0 59206 33300.00000 0 2263454.744 24998289.617 4535838.307 10 0 59206 34200.00000 0 2435408.333 25352448.784 1343489.177 10 0 59206 35100.00000 0 2590327.473 25300818.342 -1874968.650 10 0 59206 36000.00000 0 2672937.456 24849911.210 -5056972.422 10 0 59206 36900.00000 0 2630780.657 24019391.454 -8140634.935 10 0 59206 37800.00000 0 2416688.513 22841250.565 -11065954.526 10 0 59206 38700.00000 0 1991032.543 21358483.638 -13775990.052 10 0 59206 39600.00000 0 1323657.674 19623320.828 -16217976.984 10 0 59206 40500.00000 0 395414.484 17695088.325 -18344362.149 10 0 59206 41400.00000 0 -800776.054 15637788.783 -20113736.283 10 0 59206 42300.00000 0 -2259371.832 13517503.099 -21491645.655 10 0 59206 43200.00000 0 -3962197.583 11399722.789 -22451266.683 10 0 59206 44100.00000 0 -5878973.454 9346725.014 -22973930.256 10 0 59206 45000.00000 0 -7968363.036 7415100.364 -23049485.558 10 0 59206 45900.00000 0 -10179497.808 5653536.771 -22676496.450 10 0 59206 46800.00000 0 -12453914.832 4100951.904 -21862266.802 10 0 59206 47700.00000 0 -14727826.980 2785051.570 -20622694.474 10 0 59206 48600.00000 0 -16934631.013 1721373.494 -18981957.064 10 0 59206 49500.00000 0 -19007548.798 912855.209 -16972035.737 10 0 59206 50400.00000 0 -20882291.188 349942.756 -14632086.682 10 0 59206 51300.00000 0 -22499633.188 11233.887 -12007672.725 10 0 59206 52200.00000 0 -23807792.758 -135373.035 -9149870.342 10 0 59206 53100.00000 0 -24764513.748 -131074.558 -6114269.958 10 0 59206 54000.00000 0 -25338766.088 -24171.439 -2959889.403 10 0 59206 54900.00000 0 -25511992.481 132222.745 251977.808 10 0 59206 55800.00000 0 -25278849.960 282675.614 3458956.407 10 0 59206 56700.00000 0 -24647416.086 372026.202 6598801.849 10 0 59206 57600.00000 0 -23638852.044 347961.176 9610607.520 10 0 59206 58500.00000 0 -22286537.659 163467.774 12435983.035 10 0 59206 59400.00000 0 -20634715.417 -220940.352 15020180.917 10 0 59206 60300.00000 0 -18736700.822 -835318.323 17313150.283 10 0 59206 61200.00000 0 -16652734.290 -1698786.489 19270497.712 10 0 59206 62100.00000 0 -14447564.268 -2818491.444 20854337.618 10 0 59206 63000.00000 0 -12187861.962 -4189075.475 22034016.732 10 0 59206 63900.00000 0 -9939574.738 -5792677.077 22786699.648 10 0 59206 64800.00000 0 -7765327.273 -7599463.319 23097805.135 10 0 59206 65700.00000 0 -5721977.290 -9568672.895 22961285.489 10 0 59206 66600.00000 0 -3858426.244 -11650127.642 22379743.955 10 0 59206 67500.00000 0 -2213774.608 -13786151.100 21364388.050 10 0 59206 68400.00000 0 -815897.272 -15913815.847 19934819.327 10 0 59206 69300.00000 0 319502.588 -17967427.526 18118662.991 10 0 59206 70200.00000 0 1189322.537 -19881143.527 15951043.582 10 0 59206 71100.00000 0 1802955.436 -21591618.272 13473915.676 10 0 59206 72000.00000 0 2181654.180 -23040565.407 10735261.416 10 0 59206 72900.00000 0 2357393.438 -24177130.163 7788169.292 10 0 59206 73800.00000 0 2371276.291 -24959972.512 4689811.056 10 0 59206 74700.00000 0 2271552.898 -25358973.265 1500336.051 10 0 59206 75600.00000 0 2111334.975 -25356490.745 -1718295.871 10 0 59206 76500.00000 0 1946103.031 -24948114.190 -4903520.186 10 0 59206 77400.00000 0 1831112.351 -24142881.091 -7993388.337 10 0 59206 78300.00000 0 1818808.445 -22962948.266 -10927778.848 10 0 59206 79200.00000 0 1956362.454 -21442729.549 -13649574.578 10 0 59206 80100.00000 0 2283432.185 -19627535.628 -16105782.232 10 0 59206 81000.00000 0 2830244.926 -17571772.743 -18248571.588 10 0 59206 81900.00000 0 3616084.652 -15336775.610 -20036213.506 10 0 59206 82800.00000 0 4648248.933 -12988365.500 -21433897.867 10 0 59206 83700.00000 0 5921520.993 -10594235.895 -22414415.228 10 0 59206 84600.00000 0 7418180.424 -8221275.257 -22958688.778 10 0 59206 85500.00000 0 9108553.156 -5932939.058 -23056146.212 99